一网星座-0351星 (ONEWEB-0351 )

导读 | 豆包AI

ONEWEB-0351是英国OneWeb低轨宽带星座的通信卫星,于2021年9月14日发射升空。该卫星隶属于OneWeb一期星座,单星重约147.5公斤,设计寿命5年,运行于1200公里近地轨道,配备Ku/Ka波段通信天线,单星通信容量约7.5Gbps,为全球提供低延时宽带互联网接入服务,尤其在极地等偏远区域具备覆盖优势,遵循空间碎片离轨规范,助力OneWeb完成全球卫星互联网组网建设。

Basic Information
目录编号:
49215
目录名称:
ONEWEB-0351
国际标识:
2021-083AF
轨道中心:
EARTH
卫星名称:
一网星座-0351星
卫星全名:
一网星座-0351星 (ONEWEB-0351 )
卫星状态:
在轨 (已飞行1642 天)
发射日期:
2021-09-14 UTC
国别 :
英国 (GB)
星等 :
--
Orbit Information
数据来源 国际轨道数据 AOE轨道数据
星历时间 2026-03-14T05:09:12+0800
14小时前
查看轨道信息
2026-03-12T16:00:00+0800
2天前
查看轨道信息
半长轴 7559.917km 7559.918km
偏心率 0.0002469 0.0002003
轨道倾角 87.917° 87.918°
近地点辐角 95.091° 100.134°
升交点赤经 293.468° 293.777°
平近点角 265.051° 103.554°
近地点 1179.913km 1180.266km
远地点 1183.647km 1183.296km
周期 109.027分钟 109.027分钟
每日圈数 13.207703 13.207699
Detailed Information
平衡模式:
三轴稳定
覆盖范围:
全球
运营商:
一网卫星公司
运营商所在国:
英国
制造商(研发单位):
一网卫星公司
制造商所在国:
英国
使用方式:
暂无
Satellite Introduction
OneWeb卫星网络由648颗重约125公斤的微型卫星组成,运行在1200公里的轨道上。 每颗卫星都能够提供至少每秒8千兆位的吞吐量,以使用其高吞吐量的Ku频段有效载荷为家庭和移动平台提供互联网接入。该卫星仍在工作。
2D Orbit Map
3D Orbit Map
Orbit Altitude Analysis Chart
Orbit Inclination Analysis Chart
Orbit Comprehensive Analysis Chart
View Comprehensive Chart